Regional Weather Roundup
Issued by NWS

Home | Current Version | Previous Version | Graphics & Text | Print | Product List | Glossary On
Versions: 1 2 3 4 5 6 7 8 9 10 11 12 13 14 15 16 17 18 19 20 21 22 23 24 25 26 27 28 29 30 31 32 33 34 35 36 37 38 39 40 41 42 43 44 45 46 47 48 49 50
973
ASUS44 KLIX 230105
RWRLA
LOUISIANA WEATHER ROUNDUP
NATIONAL WEATHER SERVICE NEW ORLEANS LA
800 PM CDT WED OCT 22 2014

NOTE: "FAIR" INDICATES FEW OR NO CLOUDS BELOW 12,000 FEET WITH NO
      SIGNIFICANT WEATHER AND/OR OBSTRUCTIONS TO VISIBILITY.
      SKY/WX - SKY CONDITION AND SIGNIFICANT WEATHER.
      TMP - AIR TEMPERATURE.    DP   - DEWPOINT TEMPERATURE.
      RH  - RELATIVE HUMIDITY.  PRES - PRESSURE.
      HX  - HEAT INDEX.         WCI  - WIND CHILL INDEX.

*  THESE STATIONS ARE NOT NWS OR FAA STATIONS AND ARE NOT UNDER
   NWS QUALITY CONTROL.

LAZ040-048-061>063-065-066-069-230200-
SOUTHEAST LOUISIANA

CITY           SKY/WX    TMP DP  RH WIND       PRES   REMARKS
N.O. AUDUBON   NOT AVBL
N.O. INTL ARPT CLEAR     70  54  56 N3        30.04R
N.O. LAKEFRONT CLEAR     72  58  61 SE3       30.05R
N.O. DOWNTOWN* FAIR      73  52  46 CALM      30.05R
SLIDELL        CLEAR     63  57  81 CALM      30.05R
BATON ROUGE    CLEAR     61  56  83 CALM      30.06R
BOOTHVILLE     CLEAR     72  59  63 NE5       30.04R
BELLE CHASSE   CLEAR     60  55  83 CALM      30.04R
BOGALUSA*        N/A     67  51  54 NE5       30.08R
NEW ROADS*     FAIR      63  56  78 N3        30.07R
GONZALES*      FAIR      61  61 100 CALM      30.05R
HAMMOND*       CLEAR     63  52  67 CALM      30.08R
HOUMA*         CLEAR     62  58  86 CALM      30.04R
PORT FOURCHON* CLEAR     72  55  56 NE8       30.07R

$$

LAZ041-044-053-054-230200-
SOUTHWEST LOUISIANA

CITY           SKY/WX    TMP DP  RH WIND       PRES   REMARKS
LAKE CHARLES   CLEAR     68  57  68 NE8       30.06R
LAFAYETTE      CLEAR     66  55  67 NE5       30.06R
PATTERSON      CLEAR     64  61  88 CALM      30.07R
SALT POINT       N/A     69  60  73 CALM      30.04R
NEW IBERIA     CLEAR     66  57  72 N6        30.07R
CHENAULT AIRPK CLEAR     66  57  72 N3        30.07R

$$

LAZ027-028-230200-
CENTRAL LOUISIANA

CITY           SKY/WX    TMP DP  RH WIND       PRES   REMARKS
FORT POLK      CLEAR     66  55  67 N5        30.09R
ALEXANDRIA INT PTCLDY    63  55  75 N5        30.08R
ALEXANDRIA     PTCLDY    57  55  93 CALM      30.09R

$$

LAZ001-002-230200-
NORTHWEST LOUISIANA

CITY           SKY/WX    TMP DP  RH WIND       PRES   REMARKS
SHREVEPORT     CLEAR     64  52  64 E7        30.11R
BARKSDALE AFB  CLEAR     64  53  66 NE5       30.12R
DTN SHREVEPORT CLEAR     63  53  70 NE3       30.12R

$$

LAZ014-016-230200-
NORTHEAST LOUISIANA

CITY           SKY/WX    TMP DP  RH WIND       PRES   REMARKS
MONROE         CLEAR     61  51  70 CALM      30.13R
TALLULAH       CLEAR     62  48  60 NE10      30.12R

$$




USA.gov is the U.S. government's official web portal to all federal, state and local government web resources and services.